Other Public Products
Issued by NWS Grand Forks, ND

Home | Current Version | Previous Version | Text Only | Print | Product List | Glossary On
Versions: 1 2 3 4 5 6 7 8 9 10 11 12 13 14 15 16 17 18 19 20 21 22 23 24 25 26 27 28 29 30 31 32 33 34 35 36 37 38 39 40 41 42 43 44 45 46 47 48 49 50
000
FPUS83 KFGF 040831
OPUFGF
PRAIRIE TO PINES WEATHER ROUNDUP
NATIONAL WEATHER SERVICE EASTERN NORTH DAKOTA/GRAND FORKS ND
200 AM CST SUN DEC 04 2016

 **SATELLITE DATA USED TO AUGMENT SKY COVER AT AUTOMATED STATIONS**
 *****  WEATHER ACROSS EASTERN NORTH DAKOTA  *****

CITY           SKY/WX    TMP DP  RH WIND       PRES   REMARKS
GRAND FORKS    CLOUDY    34  31  88 S14       29.82F FOG     WCI  25
GRAND FORKS AF CLOUDY    33  32  96 S13       29.81F WCI  24
GRAND CITY NWS   N/A     32 N/A N/A S15         N/A  WCI  22
BUXTON           N/A    N/A N/A N/A CALM        N/A
DEVILS LAKE    LGT SNOW  32  30  93 S10       29.72F FOG     WCI  24
FARGO          CLOUDY    35  32  88 S15G23    29.86F
WAHPETON ARPT  CLOUDY    32  32 100 SE13      29.88F WCI  22
$$

 *****  WEATHER ACROSS CENTRAL AND WESTERN NORTH DAKOTA  *****

CITY           SKY/WX    TMP DP  RH WIND       PRES   REMARKS
JAMESTOWN      CLOUDY    32  30  92 S13       29.76F WCI  22
BISMARCK       CLOUDY    34  31  88 W10       29.77F
MINOT          CLOUDY    32  29  88 W13       29.71S WCI  22
MINOT AFB      MOCLDY    27  23  86 NW10      29.70S WCI  17
GARRISON         N/A     34  32  92 W8        29.72F
WILLISTON      LGT SNOW  33  30  88 W12       29.77S FOG     WCI  24
DICKINSON      CLEAR     25  22  88 W14       29.76F WCI  13
HETTINGER      CLEAR     25  19  78 W16       29.82F WCI  12
$$

 *****  OTHER OBSERVATIONS NORTHEAST NORTH DAKOTA  *****

CITY           SKY/WX    TMP DP  RH WIND       PRES   REMARKS
WALHALLA         N/A     32  32 100 SE12      29.78F WCI  23
LANGDON        CLOUDY    32  32 100 SE16      29.73F WCI  21
CAVALIER         N/A     32  32 100 S10       29.79F FOG     WCI  24
GRAFTON        CLOUDY    32  32 100 SE14G21   29.82F FOG     WCI  22
CANDO          CLOUDY    32  32 100 S9        29.73F WCI  24
FORT TOTTEN      N/A     31  31 100 S7        29.95S WCI  24
ROLLA          MIX PCPN  28  28 100 S7        29.69F WCI  21
RUGBY          LGT SNOW  28  28 100 SW10      29.69F WCI  19
 ***** THE ABOVE OBSERVATIONS ARE NON NWS ARE NOT QUALITY
        CONTROLLED AND MAY MIS-REPORT RAIN FOR SNOW...
$$

 *****  OTHER OBSERVATIONS SOUTHEAST NORTH DAKOTA *****

CITY           SKY/WX    TMP DP  RH WIND       PRES   REMARKS
COOPERSTOWN    MIX PCPN  32  32 100 S15       29.77F WCI  22
VALLEY CITY    LGT SNOW  32  32 100 S13       29.80F WCI  22
OAKES          NOT AVBL
GWINNER        CLOUDY    36  34  93 S13       29.83F
SHEYENNE NWR     N/A     34  32  91 S10       29.95S
BUFFALO          N/A     33  31  93 NE12        N/A  WCI  25
WYNDMERE         N/A     34  34 100 SE10        N/A
 ***** THE ABOVE OBSERVATIONS ARE NON NWS ARE NOT QUALITY
       CONTROLLED AND MAY MIS-REPORT RAIN FOR SNOW...
$$

  *****  WEATHER ACROSS NORTHERN MINNESOTA  *****

CITY           SKY/WX    TMP DP  RH WIND       PRES   REMARKS
FLAG ISLAND    CLOUDY    28  27  93 SE14      29.93F WCI  17
WARROAD        CLOUDY    28  25  86 SE9       29.91F WCI  20
ROSEAU         CLOUDY    30  27  86 SE10      29.89F WCI  21
HALLOCK        CLOUDY    34  30  86 SE14      29.83F FOG     WCI  24
THF RVR FALLS  CLOUDY    32  29  88 S14G21    29.87F WCI  22
HALSTAD          N/A     34  32  92 S20         N/A  WCI  23
FOSSTON        CLOUDY    30  27  86 SE13      29.89F WCI  20
BAUDETTE       FLURRIES  25  22  88 SE10      29.94F WCI  15
WASKISH        CLOUDY    28  27  93 SE8       29.95F WCI  20
CROOKSTON      MIX PCPN  34  32  93 S15G22    29.86F WCI  24
$$
  *****  WEATHER ACROSS CENTRAL AND WEST MINNESOTA  *****

CITY           SKY/WX    TMP DP  RH WIND       PRES   REMARKS
BEMIDJI        CLOUDY    28  26  93 SE9       29.93F WCI  19
PARK RAPIDS    CLOUDY    30  25  81 SE14      29.93F WCI  19
WADENA         CLOUDY    30  28  93 S10       29.93F FOG     WCI  21
DETROIT LAKES  MIX PCPN  32  32 100 S13       29.90F WCI  22
MOORHEAD       CLOUDY    34  30  86 S20       29.87F FOG     WCI  22
FERGUS FALLS   CLOUDY    34  34 100 S14G20    29.94F FOG     WCI  24
ELBOW LAKE     CLOUDY    32  32 100 SE16      29.92F FOG     WCI  21
MORRIS MN      MOCLDY    34  32  93 S12       29.92F FOG
STAPLES        CLOUDY    28  27  93 SE7       29.96F WCI  21
WHEATON        NOT AVBL
$$
  *****  WEATHER ELSEWHERE ACROSS MINNESOTA  *****

CITY           SKY/WX    TMP DP  RH WIND       PRES   REMARKS
DULUTH         LGT SNOW  27  23  85 SE7       30.06F FOG     WCI  19
INTRNTL FALLS  LGT SNOW  25  22  88 SE8       29.99S FOG     WCI  16
ELY            CLOUDY    25  21  86 SE7       30.05F WCI  17
CLOQUET        LGT SNOW  27  23  86 SE7       30.06F WCI  19
BRAINERD       LGT SNOW  28  26  92 SE8       30.00F FOG     WCI  20
HIBBING        LGT SNOW  25  22  88 SE7       30.03F VSB 1   WCI  17
ALEXANDRIA     CLOUDY    33  32  96 S17       29.95F FOG     WCI  22
SAINT CLOUD    LGT SNOW  30  29  96 SE10      30.02F FOG     WCI  21
MINNEAPOLIS    LGT SNOW  31  28  89 SE10      30.08F FOG     WCI  22
$$

  *****  WEATHER ACROSS SOUTH DAKOTA  *****

CITY           SKY/WX    TMP DP  RH WIND       PRES   REMARKS
SIOUX FALLS    CLOUDY    34  33  96 S15       29.95F WCI  24
BROOKINGS      CLOUDY    32  30  93 S14       29.90F FOG     WCI  22
WATERTOWN      CLOUDY    32  31  96 S14       29.87F FOG     WCI  22
HURON          PTCLDY    30  30 100 S6        29.89F WCI  24
SISSETON         N/A     35  32  88 S14       29.87F
ABERDEEN       MOCLDY    31  28  89 S10       29.85F WCI  22
MITCHELL       PTCLDY    32  30  92 S7        29.92F
PIERRE         CLEAR     31  24  75 SW8       29.86F WCI  23
MOBRIDGE       CLOUDY    36  31  82 NW8       29.79S
RAPID CITY     CLEAR     28  21  75 W10       29.90F WCI  19
$$

  *****  SOME WEATHER IN NEARBY STATES *****

CITY           SKY/WX    TMP DP  RH WIND       PRES   REMARKS
GLASGOW MT     CLEAR     26  23  88 W10       29.82F WCI  16
GREAT FALLS MT CLOUDY    33  21  61 SW24G37   29.84F WCI  20
CHEYENNE WY    CLEAR     23   8  52 NW13      29.99F WCI  11
SCOTTSBLUFF NE CLEAR     20  12  71 NW8       30.01F WCI  10
OMAHA NE       LGT RAIN  34  31  88 S6        30.03S FOG
DES MOINES IA  LGT SNOW  36  34  92 SE10      30.08F FOG
DAVENPORT IA   CLOUDY    34  27  75 SE8       30.19F
CHICAGO IL     CLOUDY    32  25  75 CALM      30.24S
EAU CLAIRE WI  CLOUDY    31  24  75 SE6       30.13F
LA CROSSE WI   LGT SNOW  33  30  88 SE7       30.16F FOG
$$

  *****  SOME NATIONAL WEATHER *****

CITY           SKY/WX    TMP DP  RH WIND       PRES   REMARKS
LA GUARDIA NY  CLOUDY    43  27  53 NW13      30.19S
RALEIGH NC     CLOUDY    44  31  60 N3        30.27R
ATLANTA GA     CLOUDY    46  43  89 E12       30.15S
NEW ORLEANS LA LGT RAIN  63  63 100 E12       29.91R
OKLAHOMA CITY  LGT RAIN  44  43  96 NW5       30.02R FOG
ALBUQUERQUE NM CLOUDY    31  18  58 E3        30.11R
SALT LAKE CITY CLEAR     30  19  63 SE12      30.25F WCI  20
LOS ANGELES CA CLEAR     54  29  38 E5        30.06F
BOISE ID       CLOUDY    36  28  73 SE9       30.14F
SEATTLE WA     CLOUDY    45  43  93 S15       30.03F
$$

*** WEATHER ACROSS MANITOBA...SASKATCHEWAN AND ONTARIO ***
                ***ONTARIO***

CITY           SKY/WX    TMP DP  RH WIND       PRES   REMARKS
GERALDTON      CLOUDY    21  19  93 SE6       30.19S WCI  14
THUNDER BAY    FLURRIES  28  28 100 NW2       30.14F
SIOUX LOOKOUT  CLOUDY    25  21  86 S7        30.04F WCI  17
TORONTO        MOCLDY    36  28  75 N8        30.27R
BIG TROUT LK   CLOUDY    21  18  86 S14       30.08F WCI   8
PICKLE LAKE    NOT AVBL
DRYDEN         MOCLDY    25  19  80 SE9       30.00F WCI  15
KENORA         CLOUDY    25  21  86 SE10      29.94F WCI  15
$$
                *** MANITOBA***

CITY           SKY/WX    TMP DP  RH WIND       PRES   REMARKS
BRANDON        LGT SNOW  28  28 100 S3        29.71S
DAUPHIN        LGT SNOW  28  27  93 SE8       29.71F WCI  20
ISLAND LAKE    NOT AVBL
PILOT MOUND      N/A     30  30 100 SE15        N/A  WCI  19
THE PAS        LGT SNOW  28  27  93 S3        29.70F FOG
THOMPSON       FLURRIES  18  16  93 E5        29.84F WCI  11
WINNIPEG       CLOUDY    28  25  86 SE17      29.83F WCI  16
LYNN LAKE      CLOUDY    21  21 100 SE9       29.71F WCI  11
CHURCHILL      FLURRIES  14  12  92 S8        30.00F WCI   3
GILLAM         FLURRIES   7   3  85 SE5       29.97F WCI  -2
$$
                ***SASKATCHEWAN***

CITY           SKY/WX    TMP DP  RH WIND       PRES   REMARKS
ESTEVAN        NOT AVBL
KINDERSLEY     CLEAR     12  10  92 S5        29.70F WCI   4
LLOYDMINSTER   CLEAR     19  16  86 W10       29.65F WCI   8
PRINCE ALBERT  CLOUDY    27  25  93 W7        29.68F WCI  19
REGINA         CLOUDY    25  23  93 NW12      29.73F WCI  14
YORKTON        FLURRIES  28  27  93 NW14      29.68R WCC1F1C2F2C3F3C4F4C5F5C6F6C7F7C8F8C9F9CaFaCbFbCcFcCdFdCe!


USA.gov is the U.S. government's official web portal to all federal, state and local government web resources and services.